Location: Montichiari
(45.4167°N, 10.3833°E)
Time: 10:40:52
(UTC+00:00)

Daily predictions for brighter satellites

Satellite Brightness Start Highest point End
(mag) Time Altitude Azimuth Time Altitude Azimuth Time Altitude Azimuth
COSMOS 2455 4.2 16:28:30 10° WSW 16:33:55 34° NW 16:39:24 10° NNE
BREEZE-M DEB (TANK) 3.6 16:23:20 10° WNW 16:36:08 87° SSW 16:39:51 10° SE
SJ-7 4.4 16:32:47 10° SSE 16:36:48 64° ENE 16:40:48 10° N
Cosmos 2221 2.7 16:34:19 10° NNW 16:38:36 77° W 16:42:51 10° S
ATLAS 5 CENTAUR R/B 4.2 16:36:46 10° NW 16:39:29 14° NNW 16:42:19 10° NNE
CORIOLIS 4.1 16:34:59 10° SSE 16:40:17 71° ENE 16:45:38 10° N
Cosmos 2322 Rocket 3.1 16:34:50 10° SW 16:40:19 48° WNW 16:45:50 10° NNE
Cosmos 2278 Rocket 3.3 16:36:54 10° N 16:41:21 23° NE 16:45:46 10° E
Cosmos 1937 Rocket 3.5 16:37:45 10° NNW 16:42:55 66° ENE 16:48:05 10° SSE
Cosmos 468 Rocket 4.1 16:38:03 10° S 16:43:09 60° ESE 16:48:14 10° NNE
Cosmos 2219 Rocket 3.5 16:39:17 10° SE 16:43:19 20° E 16:47:20 10° NE
Tsikada Rocket 4.2 16:38:23 10° SSE 16:44:34 56° E 16:50:49 10° NNE
Cosmos 1766 Rocket 3.6 16:45:49 10° S 16:50:14 63° E 16:54:39 10° NNE
Cosmos 1844 4.2 16:45:59 10° NNW 16:51:23 40° NE 16:56:48 10° SE
Cosmos 2228 Rocket 3.4 16:47:57 10° N 16:52:11 44° ENE 16:56:24 10° SSE
COSMO-SKYMED 1 3.2 16:52:03 10° NNE 16:56:01 34° E 16:59:59 10° SSE
MOS 1 4.5 16:50:30 10° SSE 16:56:09 80° WSW 17:01:51 10° NNW
CZ-4C R/B 4.3 16:54:00 10° WNW 16:58:01 18° NNW 17:02:23 10° NNE
COSMOS 2428 3.0 16:54:48 10° S 17:00:17 49° ESE 17:05:46 10° NE
YAOGAN 1 2.8 16:56:30 10° S 17:00:49 74° WSW 17:05:10 10° NNW
OTV 4 2.7 16:59:13 10° SW 17:01:21 18° S 17:03:27 10° SE
MONITOR-E 4.2 16:58:59 10° SSE 17:02:08 63° ENE 17:05:17 10° N
Meteor 2-2 Rocket 4.3 16:59:48 10° N 17:05:22 57° ENE 17:10:54 10° SSE
Cosmos 2237 4.2 17:00:04 10° SSW 17:05:41 66° ESE 17:11:22 10° NNE
Cosmos 2237 Rocket 3.4 17:06:28 10° SE 17:10:29 20° E 17:12:44 16° ENE
Cosmos 1908 3.2 17:08:00 10° N 17:11:54 87° WSW 17:15:47 10° S
Cosmos 1408 Rocket 3.8 17:08:47 10° SSW 17:13:14 73° W 17:17:41 10° N
Cosmos 1634 Rocket 4.0 17:08:07 10° N 17:14:13 56° ENE 17:20:16 10° SSE
CZ-4 R/B 3.4 17:14:54 10° SSW 17:18:20 30° W 17:21:48 10° NNW
Cosmos 1484 Rocket 2.8 17:15:02 10° SSE 17:18:56 86° W 17:22:56 10° NNW
CZ-3A R/B 3.0 17:13:35 10° NW 17:19:14 49° NNE 17:22:45 17° E
ALOS 3.4 17:17:47 11° ESE 17:21:11 22° ENE 17:24:47 10° NNE
Cosmos 389 Rocket 3.7 17:21:24 10° NNW 17:24:53 46° W 17:28:18 10° S
CZ-2C R/B 4.2 17:20:17 10° SSW 17:24:55 36° W 17:29:27 10° NNW
Cosmos 371 Rocket 3.8 17:21:44 10° S 17:26:09 38° ESE 17:28:59 20° NE
SKYMED 3 4.5 17:21:50 10° NNE 17:26:11 71° ESE 17:30:30 10° S
Lacrosse 5 2.8 17:22:08 10° W 17:26:58 42° NNW 17:30:42 16° NE
Lacrosse 5 rocket 2.3 17:23:58 10° NNW 17:27:10 26° NNE 17:28:01 24° NE
Cosmos 1763 Rocket 3.4 17:22:15 10° SSW 17:27:29 77° ESE 17:32:40 10° NNE
USA 215 3.4 17:21:20 10° SE 17:27:54 77° SW 17:34:29 10° NW
ATLAS 3B R/B 4.5 17:23:34 10° WNW 17:29:03 22° NNW 17:34:21 10° NNE
Cosmos 2322 4.4 17:24:14 10° SW 17:29:47 55° WNW 17:35:24 10° NNE
Cosmos 1674 3.1 17:28:16 10° SSW 17:32:02 65° W 17:35:53 10° N
NOAA 12 4.1 17:26:59 10° SSE 17:32:06 59° ENE 17:37:17 10° N
Cosmos 1743 Rocket 3.5 17:28:59 10° S 17:33:28 89° E 17:37:58 10° N
Cosmos 372 Rocket 4.3 17:30:34 10° N 17:35:23 40° ENE 17:39:59 11° SE
Thor Agena Rocket 4.4 17:33:03 10° N 17:38:09 50° WNW 17:43:10 10° SW
SL-16 R/B 4.3 17:34:54 10° W 17:39:09 21° NW 17:43:27 10° N
Cosmos 1328 Rocket 4.1 17:35:18 10° NNW 17:39:42 62° W 17:44:04 10° S
Cosmos 1300 2.6 17:39:02 10° N 17:42:52 65° E 17:46:40 10° SSE
Cosmos 44 Rocket 3.8 17:38:48 10° S 17:43:39 43° ESE 17:45:24 32° ENE
Cosmos 1515 Rocket 3.7 17:39:25 10° NNW 17:43:54 76° W 17:48:20 10° S
Cosmos 2333 4.1 17:38:30 10° SSW 17:44:07 89° WNW 17:48:58 14° NNE
SKYMED 2 3.7 17:39:53 10° N 17:44:15 75° WNW 17:48:34 10° SSW
Cosmos 1844 Rocket 3.1 17:39:52 10° NNW 17:45:31 67° WSW 17:51:05 10° SSE
DMSP B5D1-3 4.4 17:44:25 10° NNE 17:49:33 85° ESE 17:54:39 10° SSW
Cosmos 2058 3.1 17:46:08 10° SSE 17:50:02 43° E 17:50:17 43° E
Cosmos 1328 3.6 17:47:32 10° S 17:51:29 82° E 17:54:14 19° NNE
Cosmos 1125 Rocket 3.4 17:49:26 10° NNW 17:54:41 81° ENE 17:59:53 10° SSE
Cosmos 540 Rocket 3.6 17:49:48 10° S 17:54:45 48° ESE 17:56:20 36° ENE
Cosmos 1980 3.8 17:51:19 10° S 17:56:47 52° ESE 17:58:56 34° NE
Cosmos 1726 2.2 17:54:30 10° NNW 17:58:15 78° W 18:02:01 10° S
Cosmos 2360 Rocket 3.7 17:53:27 10° WSW 17:58:26 32° NW 18:03:27 10° N
NOSS 0 Rocket 3.9 17:53:56 10° S 18:00:03 61° ESE 18:03:10 29° NE
SJ-6B 2.8 17:57:10 10° SSE 18:01:13 90° ENE 18:05:21 10° NNW
Cosmos 1500 Rocket 3.9 17:57:02 10° SSW 18:01:19 65° W 18:05:39 10° N
Cosmos 1151 Rocket 3.3 17:59:00 10° NNW 18:03:15 68° W 18:07:29 10° S
Cosmos 2151 2.8 17:59:17 10° S 18:03:29 85° ESE 18:05:40 28° N
Cosmos 2333 Rocket 2.1 17:58:29 10° SSW 18:04:04 69° ESE 18:06:40 33° NE
Meteor 1-27 4.2 18:00:52 10° N 18:06:42 82° E 18:12:32 10° SSE
Meteor 1-28 Rocket 3.9 18:04:55 16° N 18:07:40 53° WNW 18:11:17 10° SSW
Cosmos 2279 Rocket 3.9 18:03:06 10° N 18:09:20 86° E 18:15:34 10° S
Spot 2 Rocket 3.4 18:04:26 10° SSE 18:09:24 59° ENE 18:14:22 10° N
Resurs 01 Rocket 1.7 18:15:15 59° NNE 18:15:15 59° NNE 18:19:08 10° N
CENTAUR R/B 3.0 18:11:55 10° SW 18:18:02 58° NW 18:22:18 24° NNE
FENGYUN 3A 3.5 18:12:54 10° SSE 18:18:13 73° ENE 18:23:36 10° N
Cosmos 841 Rocket 4.4 18:14:13 10° SW 18:19:18 48° WNW 18:23:28 15° N
Cosmos 2180 Rocket 4.4 18:16:12 10° N 18:22:23 89° E 18:28:35 10° S
Cosmos 2278 Rocket 2.4 18:20:20 10° NNW 18:26:00 71° WSW 18:31:38 10° SSE
ATLAS 5 CENTAUR R/B 4.2 18:24:02 10° NNW 18:26:26 13° N 18:26:26 13° N
Cosmos 2219 Rocket 2.5 18:21:07 10° SW 18:26:43 65° WNW 18:29:37 29° NNE
Nadezhda 4 Rocket 3.9 18:26:39 10° S 18:32:45 61° E 18:32:45 61° E
Cosmos 1340 Rocket 4.4 18:29:23 10° SSW 18:31:12 26° SSW 18:31:12 26° SSW
OTV 4 3.6 18:34:50 10° SW 18:35:14 12° SW 18:35:14 12° SW
DNEPR-1 R/B 4.5 18:37:27 10° SW 18:44:16 72° NW 18:45:26 57° N
COSMOS 2428 4.3 18:39:47 10° WSW 18:44:47 30° NW 18:48:30 16° N
CZ-4C R/B 4.4 18:45:07 10° NNW 18:49:04 17° N 18:49:04 17° N
Cosmos 2237 Rocket 2.5 18:48:25 10° SW 18:53:59 64° WNW 18:54:38 59° NNW
SL-16 R/B 3.6 18:51:15 10° S 18:53:39 26° S 18:53:39 26° S
ALOS 3.3 18:53:53 10° S 18:58:20 45° W 19:02:50 10° NNW
BREEZE-M DEB (TANK) 4.3 18:43:37 10° W 19:00:45 65° N 19:01:05 64° NNE
Cosmos 2297 4.0 18:56:37 10° NNW 19:01:31 64° NW 19:01:31 64° NW
Lacrosse 5 rocket 3.8 19:02:50 10° NW 19:03:45 17° WNW 19:03:45 17° WNW
Cosmos 44 4.3 19:01:47 10° SW 19:05:34 45° WSW 19:05:34 45° WSW
Lacrosse 5 3.9 19:07:05 10° WNW 19:09:55 21° NNW 19:09:55 21° NNW
Cosmos 2333 Rocket 4.2 19:44:28 10° W 19:48:44 23° NW 19:48:44 23° NW
